Regional Weather Roundup
Issued by NWS Upton, NY

Current Version | Previous Version | Text Only | Print | Product List | Glossary On
Versions: 1 2 3 4 5 6 7 8 9 10 11 12 13 14 15 16 17 18 19 20 21 22 23 24 25 26 27
000
ASUS41 KOKX 260705
RWROKX
REGIONAL WEATHER ROUNDUP
NATIONAL WEATHER SERVICE NEW YORK NY
300 AM EDT SUN OCT 26 2014

NOTE: "FAIR" INDICATES FEW OR NO CLOUDS BELOW 12,000 FEET WITH NO
SIGNIFICANT WEATHER AND/OR OBSTRUCTIONS TO VISIBILITY.

NYZ071-072-176-178-NJZ106-104-260800-
NEW YORK CITY METRO AREA


CITY           SKY/WX    TMP DP  RH WIND       PRES   REMARKS
CENTRAL PARK   MOCLDY    58  47  66 W7        29.58S
LAGUARDIA APRT MOCLDY    59  49  69 W6        29.55S
KENNEDY INTL   MOCLDY    59  48  67 W7        29.57R
NEWARK/LIBERTY PTCLDY    59  45  59 W6        29.56S
BRNX BOT. GARD   N/A     57  48  72 SW2       29.57R
TETERBORO      PTCLDY    57  46  66 W6        29.55S
$$

NYZ177-179-078>081-260800-
LONG ISLAND NEW YORK

CITY           SKY/WX    TMP DP  RH WIND       PRES   REMARKS
FARMINGDALE    CLOUDY    59  48  67 W5        29.56S
ISLIP          CLOUDY    58  48  69 W8        29.53F
SHIRLEY        CLOUDY    58  48  69 W7        29.53F
WESTHAMPTON    LGT RAIN  59  47  64 W8        29.53F
MONTAUK POINT    N/A     61  51  70 W7        29.52F
$$

NYZ052-065-067-260800-
HUDSON VALLEY

CITY           SKY/WX    TMP DP  RH WIND       PRES   REMARKS
WHITE PLAINS   PTCLDY    51  47  86 CALM      29.53F
NEWBURGH       CLEAR     46  45  93 NW5       29.54F
MONTGOMERY     LGT RAIN  49  43  80 NW18G28   29.60R
POUGHKEEPSIE   CLEAR     44  41  89 CALM      29.53S
ALBANY         CLOUDY    49  44  83 SW9       29.51F
$$

NJZ001-105-106-008-010-013-015-019>022-104-260800-
NEW JERSEY

CITY           SKY/WX    TMP DP  RH WIND       PRES   REMARKS
NEWARK/LIBERTY PTCLDY    59  45  59 W6        29.56S
TETERBORO      PTCLDY    57  46  66 W6        29.55S
CALDWELL       PTCLDY    51  47  86 CALM      29.56F
MORRISTOWN     PTCLDY    50  45  81 CALM      29.56F
SOMERVILLE     PTCLDY    50  45  83 CALM      29.56F
SUSSEX         CLEAR     49  42  77 SW3       29.56S
ANDOVER          N/A     46  45  96 CALM      29.57F
TRENTON        MOCLDY    60  45  57 W6        29.59S
MILLVILLE      PTCLDY    55  47  74 W6        29.63S
ATLANTIC CITY  PTCLDY    57  47  69 W8        29.61F
WRIGHTSTOWN    CLOUDY    58  46  63 W7        29.58R
TOMS RIVER     CLOUDY    57  45  62 W5        29.60R
BELMAR         CLOUDY    57  41  54 W7        29.58F
$$

PAZ047>061-062-071-260800-
EASTERN PENNSYLVANIA

CITY           SKY/WX    TMP DP  RH WIND       PRES   REMARKS
PHILADELPHIA   CLOUDY    60  48  64 SW6       29.61S
ALLENTOWN      PTCLDY    54  39  57 SW3       29.58F
SCRANTON       MOCLDY    57  39  51 N16G28    29.61R
$$

CTZ002-004>006-009-010-012-RIZ004-006-007-MAZ004-011-015-260800-
SOUTHERN NEW ENGLAND
 IN CT

CITY           SKY/WX    TMP DP  RH WIND       PRES   REMARKS
BRADLEY INTL   MOCLDY    53  43  68 CALM      29.49F
HARTFORD       MOCLDY    51  45  79 CALM      29.51F
DANBURY        PTCLDY    47  43  86 SW6       29.54F
WTRBRY/OXFORD  PTCLDY    52  39  62 CALM      29.53S
BRIDGEPORT     MOCLDY    57  46  66 NW3       29.53S
MERIDEN        MOCLDY    51  47  86 CALM      29.53R
NEW HAVEN      MOCLDY    58  47  66 N5        29.52F
CHESTER        PTSUNNY   55  46  71 CALM      29.53S
GROTON         CLOUDY    58  47  66 NW7       29.51F
WILLIMANTIC    MOCLDY    50  46  86 CALM      29.51S

 IN RI

CITY           SKY/WX    TMP DP  RH WIND       PRES   REMARKS
PROVIDENCE     MOCLDY    56  45  66 W8        29.49F
BLOCK ISLAND   CLOUDY    61  48  63 NW10G16   29.51S
WESTERLY       CLOUDY    59  47  64 NW5       29.51F

 IN MA

CITY           SKY/WX    TMP DP  RH WIND       PRES   REMARKS
BOSTON         MOCLDY    56  44  64 W9        29.46F
WORCESTER      PTCLDY    48  42  80 SW12      29.47F
WESTFIELD      PTCLDY    48  42  80 S5        29.48F
PROVINCETOWN   CLOUDY    57   3  11 W13G20    29.46F
NANTUCKET      PTCLDY    61  53  75 W16       29.49F
$$

ANZ330-335-338-340-345-350-353-355-260800-
COASTAL MARINE OBSERVATIONS


STATION/POSITION TIME  SKY/WX   TEMP    WIND        PRES    VSBY  WAVE
                                AIR SEA DIR/SP/G                  HT/PER
                 (UTC)          (F)     (DEG/KT/KT) (MB)    (MI)  (FT/S)
NY HARB ENTRANCE NOT AVBL
4S FIRE IS       0700               62                N/A           6/ 6
20S FIRE ISLAND  0700            62 63  280/ 21/ 25 1000.1          6/ 6
23SW MTP         0700                                 N/A           8/ 7
HUDSON CANYON    0700            64 65  250/ 23/ 29 1000.5          8/ 7
EXECUTION ROCKS  0700            60 61  270/  8/ 10   N/A
WESTERN LI SOUND 0700            60     270/ 10/ 12   N/A           1/ 3
CENTRAL LI SOUND 0600            62 62  270/ 17/ 19   N/A           2/ 4
EASTERN LI SOUND 0600            62 62  310/ 12/ 16   N/A
ROBBINS REEF     0700            61     280/ 10/ 11  999.9
$$


>>>>>>>>>>>>>>>>>>>>>>>>>>>> KEY <<<<<<<<<<<<<<<<<<<<<<<<<<<
>                                                          <
>     SKY/WX - SKY CONDITION/PRESENT WEATHER               <
>     TMP    - TEMPERATURE IN FAHRENHEIT                   <
>     DP     - DEWPOINT IN FAHRENHEIT                      <
>     RH     - RELATIVE HUMIDITY IN PERCENT                <
>     WIND   - DIRECTION AND SPEED IN MPH                  <
>     PRES   - MEAN SEA LEVEL PRESSURE IN INCHES OF HG     <
>     WCI    - WIND CHILL INDEX                            <
>     VSB    - VISIBILITY IN MILES                         <
>     HX     - HEAT INDEX                                  <
>     TC     - TEMPERATURE IN CELSIUS                      <
>     VRB    - VARIABLE WIND DIRECTION                     <
>                                                          <
>>>>>>>>>>>>>>>>>>>>>>>>>>>> KEY <<<<<<<<<<<<<<<<<<<<<<<<<<<





USA.gov is the U.S. government's official web portal to all federal, state and local government web resources and services.